Regional Weather Roundup
Issued by NWS

Home | Current Version | Previous Version | Graphics & Text | Print | Product List | Glossary On
Versions: 1 2 3 4 5 6 7 8 9 10 11 12 13 14 15 16 17 18 19 20 21 22 23 24 25 26 27 28 29 30 31 32 33 34 35 36 37 38 39 40 41 42 43 44 45 46 47
000
ASUS43 KDMX 150107
RWRIA

WEATHER ROUNDUP FOR IOWA
NATIONAL WEATHER SERVICE DES MOINES IA
800 PM CDT SUN SEP 14 2014

NOTE: "FAIR" INDICATES FEW OR NO CLOUDS BELOW 12,000 FEET WITH NO
SIGNIFICANT WEATHER AND/OR OBSTRUCTIONS TO VISIBILITY.

* - THESE STATIONS ARE NOT NWS STATIONS...THUS NOT UNDER NWS
QUALITY CONTROL.  THEY ALSO DO NOT REPORT WEATHER SUCH
AS PRECIPITATION OR FOG.

IAZ001>003-012>014-020>022-031>034-043>046-150200-
   NORTHWEST IOWA

CITY           SKY/WX    TMP DP  RH WIND       PRES   REMARKS
CARROLL *      CLOUDY    61  57  88 CALM      30.10S
CHEROKEE *     CLOUDY    59  55  88 CALM      30.11R
DENISON *      CLOUDY    61  55  82 CALM      30.08S
LE MARS *      CLOUDY    61  57  88 CALM      30.11R
ORANGE CITY *  CLEAR     63  52  67 CALM      30.11R
SHELDON *      PTCLDY    55  50  82 NE5       30.10R
SIOUX CITY     PTCLDY    58  54  86 CALM      30.10R
SPENCER        PTCLDY    59  51  75 N5        30.11S
STORM LAKE *   CLOUDY    59  55  88 CALM      30.11R
$$

IAZ055>058-069>071-079>083-090>094-150200-
   SOUTHWEST IOWA

CITY           SKY/WX    TMP DP  RH WIND       PRES   REMARKS
ATLANTIC *     CLEAR     63  52  67 SE3       30.09S
AUDUBON *      CLOUDY    63  57  82 CALM      30.11S
CLARINDA *     CLOUDY    64  54  68 CALM      30.10S
COUNCIL BLFS * MOCLDY    63  54  72 SE5       30.07S
CRESTON *      CLEAR     59  54  82 SE5       30.11F
HARLAN  *      CLOUDY    63  55  77 CALM      30.12S
LAMONI         PTCLDY    63  49  60 SE3       30.12S
SHENANDOAH *   CLOUDY    64  55  72 SE5       30.08S
$$

IAZ047>049-059>061-072>074-084-150200-
   CENTRAL IOWA

CITY           SKY/WX    TMP DP  RH WIND       PRES   REMARKS
AMES           MOCLDY    57  53  86 SE3       30.11F
ANKENY *       CLOUDY    63  55  77 CALM      30.11F
CHARITON *     CLOUDY    61  54  77 E3        30.12S
DES MOINES     MOCLDY    64  52  64 S5        30.11F
GRINNELL*      MOCLDY    57  52  82 S5        30.14R
KNOXVILLE *    CLOUDY    63  52  67 SE5       30.11F
MARSHALLTOWN   PTCLDY    60  50  69 S5        30.12S
PELLA *        CLOUDY    59  54  82 CALM      30.14S
PERRY *        CLOUDY    63  55  77 SE3       30.11S
$$

IAZ004>006-015-016-023>025-035-036-150200-
   NORTH CENTRAL IOWA

CITY           SKY/WX    TMP DP  RH WIND       PRES   REMARKS
ALGONA *       MOCLDY    59  52  77 N5        30.11S
CLARION *        N/A     57  52  82 S3        30.11S
ESTHERVILLE    MOCLDY    57  50  77 MISG      30.11S
FORT DODGE *   MOCLDY    61  52  72 CALM      30.11S
MASON CITY     PTCLDY    55  52  89 CALM      30.13R
FOREST CITY *  CLEAR     54  52  94 CALM      30.11S
IOWA FALLS *     N/A     59  50  72 S6        30.12S
$$

IAZ007>011-017>019-026>030-037>042-050>054-066-150200-
   NORTHEAST IOWA

CITY           SKY/WX    TMP DP  RH WIND       PRES   REMARKS
CEDAR RAPIDS   PTCLDY    55  51  86 S7        30.13S
CHARLES CITY * PTCLDY    55  52  88 S3        30.12S
CLINTON *      CLEAR     54  46  76 S5        30.18R
DECORAH *      CLEAR     59  50  72 S3        30.11S
DUBUQUE        PTCLDY    54  49  83 CALM      30.15R
MONTICELLO *   CLEAR     55  50  82 S3        30.14S
OELWEIN *      CLOUDY    57  52  82 S7        30.13S
WATERLOO       MOCLDY    58  50  75 S7        30.12R
$$

IAZ064-065-067-068-078-150200-
   EAST CENTRAL IOWA

CITY           SKY/WX    TMP DP  RH WIND       PRES   REMARKS
DAVENPORT      CLEAR     55  45  68 S6        30.16S
IOWA CITY      PTCLDY    59  50  72 CALM      30.15S
MT. PLEASANT * PTCLDY    57  48  72 SE6       30.15S
MUSCATINE *    CLEAR     59  50  72 CALM      30.15S
QUAD CITIES    CLEAR     55  49  80 CALM      30.16S
$$

IAZ062-063-075>077-085>089-095>099-150200-
   SOUTHEAST IOWA

CITY           SKY/WX    TMP DP  RH WIND       PRES   REMARKS
BURLINGTON     CLEAR     54  52  93 CALM      30.15F
FAIRFIELD *    CLOUDY    57  50  77 SE3       30.14S
FORT MADISON * CLEAR     57  52  82 CALM      30.16S
KEOKUK *       CLEAR     57  54  88 CALM      30.15R
OSKALOOSA *      N/A     59  54  82 CALM      30.14R
CENTERVILLE *  CLEAR     54  54 100 CALM      30.14S
OTTUMWA        LGT RAIN  57  52  83 CALM      30.13S
WASHINGTON *   CLEAR     57  52  82 S3        30.15R
$$

ABBREVIATIONS USED IN REMARKS
   TC - TEMPERATURES IN CELSIUS
  WCI - WIND CHILL INDEX
   HX - HEAT INDEX
  VSB - VISIBILITY
$$



USA.gov is the U.S. government's official web portal to all federal, state and local government web resources and services.